When you browse on this site, cookies collect data to enhance your experience and personalize the content and advertising you see.
Visit our Privacy Policy to learn more. By continuing to use the site, you agree to this use of cookies and data.
  • In Romania
  • List of Countries
  • For 7 days
  • Water Temperature
  • Weather Map
  • Weather Widgets
  • user-avatar
    Login

    Hourly Weather Uyna

    Today, 31 March, Tuesday

    Time Temperature Precipitation Wind Pressure Humidity
    00:00 +20°C° 0 mm 0 mps 740 mmHg 99%
    01:00 +20°C° 0 mm 0 mps 740 mmHg 99%
    02:00 +20°C° 0 mm 0 mps 739 mmHg 99%
    03:00 +19°C° 0 mm 0 mps 739 mmHg 99%
    04:00 +19°C° 0 mm 0 mps 739 mmHg 99%
    05:00 +19°C° 0 mm 0 mps 740 mmHg 99%
    06:00 +20°C° 0 mm 0 mps 740 mmHg 99%
    07:00 +22°C° 0 mm 0 mps 740 mmHg 89%
    08:00 +24°C° 0 mm 0 mps 740 mmHg 78%
    09:00 +26°C° 0 mm 0 mps 741 mmHg 68%
    10:00 +30°C° 0 mm 1 mps 740 mmHg 60%
    11:00 +32°C° 0 mm 1 mps 739 mmHg 52%
    12:00 +35°C° 0 mm 1 mps 739 mmHg 44%
    13:00 +34°C° 0 mm 1 mps 738 mmHg 44%
    14:00 +34°C° 0 mm 1 mps 737 mmHg 45%
    15:00 +35°C° 0 mm 2 mps 736 mmHg 46%
    16:00 +32°C° 0.1 mm 1 mps 737 mmHg 57%
    17:00 +30°C° 0.1 mm 1 mps 737 mmHg 68%
    18:00 +27°C° 0.1 mm 1 mps 737 mmHg 79%
    19:00 +26°C° 0 mm 1 mps 737 mmHg 84%
    20:00 +23°C° 0 mm 0 mps 738 mmHg 90%
    21:00 +21°C° 0 mm 0 mps 738 mmHg 95%
    22:00 +21°C° 0 mm 0 mps 738 mmHg 96%
    23:00 +21°C° 0 mm 0 mps 738 mmHg 97%

    Tomorrow, 1 April, Wednesday

    Time Temperature Precipitation Wind Pressure Humidity
    00:00 +20°C° 0 mm 0 mps 738 mmHg 98%
    01:00 +20°C° 0 mm 0 mps 738 mmHg 98%
    02:00 +20°C° 0 mm 0 mps 738 mmHg 98%
    03:00 +19°C° 0 mm 0 mps 738 mmHg 98%
    04:00 +19°C° 0 mm 0 mps 738 mmHg 98%
    05:00 +19°C° 0 mm 0 mps 738 mmHg 98%
    06:00 +19°C° 0 mm 0 mps 739 mmHg 98%
    07:00 +23°C° 0 mm 0 mps 739 mmHg 83%
    08:00 +26°C° 0 mm 0 mps 740 mmHg 69%
    09:00 +29°C° 0 mm 0 mps 740 mmHg 54%
    10:00 +31°C° 0 mm 0 mps 739 mmHg 50%
    11:00 +34°C° 0 mm 1 mps 739 mmHg 45%
    12:00 +36°C° 0 mm 1 mps 738 mmHg 40%
    13:00 +35°C° 0 mm 1 mps 738 mmHg 41%
    14:00 +35°C° 0 mm 1 mps 737 mmHg 42%
    15:00 +34°C° 0 mm 1 mps 736 mmHg 43%
    16:00 +32°C° 0 mm 1 mps 737 mmHg 49%
    17:00 +31°C° 0 mm 1 mps 737 mmHg 55%
    18:00 +27°C° 0 mm 0 mps 737 mmHg 61%
    19:00 +28°C° 0 mm 1 mps 738 mmHg 64%
    20:00 +27°C° 0 mm 1 mps 739 mmHg 67%
    21:00 +26°C° 0 mm 1 mps 740 mmHg 70%
    22:00 +23°C° 0 mm 0 mps 739 mmHg 77%
    23:00 +22°C° 0 mm 0 mps 739 mmHg 83%

    Day after tomorrow, 2 April, Thursday

    Time Temperature Precipitation Wind Pressure Humidity
    00:00 +21°C° 0 mm 0 mps 739 mmHg 89%
    01:00 +20°C° 0 mm 0 mps 739 mmHg 92%
    02:00 +20°C° 0 mm 0 mps 739 mmHg 94%
    03:00 +19°C° 0 mm 0 mps 739 mmHg 97%
    04:00 +19°C° 0 mm 0 mps 739 mmHg 97%
    05:00 +19°C° 0 mm 0 mps 739 mmHg 97%
    06:00 +19°C° 0 mm 0 mps 740 mmHg 98%
    07:00 +22°C° 0 mm 0 mps 740 mmHg 83%
    08:00 +25°C° 0 mm 0 mps 740 mmHg 68%
    09:00 +31°C° 0 mm 1 mps 741 mmHg 53%
    10:00 +32°C° 0 mm 1 mps 740 mmHg 45%
    11:00 +34°C° 0 mm 1 mps 739 mmHg 36%
    12:00 +35°C° 0 mm 1 mps 739 mmHg 28%
    13:00 +36°C° 0 mm 1 mps 738 mmHg 27%
    14:00 +36°C° 0 mm 1 mps 737 mmHg 26%
    15:00 +36°C° 0 mm 1 mps 736 mmHg 25%
    16:00 +33°C° 0 mm 1 mps 737 mmHg 32%
    17:00 +31°C° 0 mm 1 mps 737 mmHg 40%
    18:00 +28°C° 0 mm 1 mps 737 mmHg 47%
    19:00 +26°C° 0 mm 1 mps 738 mmHg 55%
    20:00 +25°C° 0 mm 1 mps 739 mmHg 62%
    21:00 +21°C° 0 mm 0 mps 739 mmHg 70%
    22:00 +20°C° 0 mm 0 mps 740 mmHg 77%
    23:00 +20°C° 0 mm 0 mps 740 mmHg 83%

    3 April, Friday

    Time Temperature Precipitation Wind Pressure Humidity
    00:00 +19°C° 0 mm 0 mps 740 mmHg 89%
    01:00 +19°C° 0 mm 0 mps 739 mmHg 91%
    02:00 +18°C° 0 mm 0 mps 739 mmHg 93%
    03:00 +18°C° 0 mm 0 mps 739 mmHg 95%
    04:00 +18°C° 0 mm 0 mps 739 mmHg 95%
    05:00 +18°C° 0 mm 0 mps 740 mmHg 95%
    06:00 +18°C° 0 mm 0 mps 740 mmHg 95%
    07:00 +21°C° 0 mm 0 mps 740 mmHg 81%
    08:00 +25°C° 0 mm 0 mps 741 mmHg 67%
    09:00 +28°C° 0 mm 0 mps 741 mmHg 53%
    10:00 +30°C° 0 mm 0 mps 740 mmHg 46%
    11:00 +34°C° 0 mm 1 mps 739 mmHg 38%
    12:00 +36°C° 0 mm 1 mps 738 mmHg 31%
    13:00 +36°C° 0 mm 1 mps 738 mmHg 29%
    14:00 +36°C° 0 mm 1 mps 737 mmHg 28%
    15:00 +36°C° 0 mm 1 mps 736 mmHg 26%
    16:00 +34°C° 0 mm 1 mps 736 mmHg 34%
    17:00 +31°C° 0 mm 1 mps 736 mmHg 41%
    18:00 +28°C° 0 mm 1 mps 736 mmHg 49%
    19:00 +27°C° 0 mm 1 mps 737 mmHg 56%
    20:00 +25°C° 0 mm 1 mps 738 mmHg 64%
    21:00 +23°C° 0 mm 1 mps 739 mmHg 71%
    22:00 +21°C° 0 mm 0 mps 739 mmHg 77%
    23:00 +20°C° 0 mm 0 mps 739 mmHg 84%

    4 April, Saturday

    Time Temperature Precipitation Wind Pressure Humidity
    00:00 +19°C° 0 mm 0 mps 739 mmHg 90%
    01:00 +19°C° 0 mm 0 mps 739 mmHg 92%
    02:00 +18°C° 0 mm 0 mps 739 mmHg 94%
    03:00 +18°C° 0 mm 0 mps 738 mmHg 97%
    04:00 +18°C° 0 mm 0 mps 739 mmHg 97%
    05:00 +18°C° 0 mm 0 mps 739 mmHg 97%
    06:00 +18°C° 0 mm 0 mps 739 mmHg 97%
    07:00 +22°C° 0 mm 0 mps 740 mmHg 81%
    08:00 +25°C° 0 mm 0 mps 740 mmHg 65%
    09:00 +29°C° 0 mm 0 mps 740 mmHg 49%
    10:00 +33°C° 0 mm 1 mps 740 mmHg 42%
    11:00 +34°C° 0 mm 1 mps 739 mmHg 35%
    12:00 +36°C° 0 mm 1 mps 738 mmHg 29%
    13:00 +36°C° 0 mm 1 mps 738 mmHg 28%
    14:00 +36°C° 0 mm 1 mps 737 mmHg 27%
    15:00 +37°C° 0 mm 2 mps 736 mmHg 25%
    16:00 +34°C° 0 mm 1 mps 736 mmHg 34%
    17:00 +31°C° 0 mm 1 mps 736 mmHg 42%
    18:00 +28°C° 0 mm 1 mps 737 mmHg 50%
    19:00 +27°C° 0 mm 1 mps 737 mmHg 58%
    20:00 +25°C° 0 mm 1 mps 738 mmHg 66%
    21:00 +24°C° 0 mm 1 mps 739 mmHg 74%
    22:00 +21°C° 0 mm 0 mps 739 mmHg 80%
    23:00 +20°C° 0 mm 0 mps 739 mmHg 87%

    5 April, Sunday

    Time Temperature Precipitation Wind Pressure Humidity
    00:00 +19°C° 0 mm 0 mps 739 mmHg 93%
    01:00 +19°C° 0 mm 0 mps 739 mmHg 95%
    02:00 +18°C° 0 mm 0 mps 739 mmHg 96%
    03:00 +18°C° 0 mm 0 mps 738 mmHg 98%
    04:00 +18°C° 0 mm 0 mps 739 mmHg 98%
    05:00 +18°C° 0 mm 0 mps 739 mmHg 97%
    06:00 +18°C° 0 mm 0 mps 740 mmHg 97%
    07:00 +21°C° 0 mm 0 mps 740 mmHg 84%
    08:00 +24°C° 0 mm 0 mps 740 mmHg 71%
    09:00 +29°C° 0 mm 1 mps 741 mmHg 58%
    10:00 +31°C° 0 mm 1 mps 740 mmHg 53%
    11:00 +32°C° 0 mm 2 mps 740 mmHg 48%
    12:00 +35°C° 0 mm 2 mps 739 mmHg 42%
    13:00 +34°C° 0 mm 2 mps 739 mmHg 44%
    14:00 +34°C° 0 mm 2 mps 738 mmHg 45%
    15:00 +34°C° 0 mm 2 mps 737 mmHg 46%
    16:00 +31°C° 0 mm 2 mps 738 mmHg 54%
    17:00 +29°C° 0 mm 1 mps 738 mmHg 62%
    18:00 +27°C° 0 mm 1 mps 738 mmHg 70%
    19:00 +26°C° 0 mm 1 mps 739 mmHg 76%
    20:00 +25°C° 0 mm 1 mps 740 mmHg 82%
    21:00 +22°C° 0 mm 0 mps 741 mmHg 88%
    22:00 +22°C° 0.1 mm 0 mps 741 mmHg 91%
    23:00 +22°C° 0.1 mm 0 mps 741 mmHg 94%
    Show more